Find Starlink 5031

NORAD ID: 53889 Int'l Des: 2022-119 Owner: SPXS Country: US Constellation: starlink operational
LEOCIRCULAR

リアルタイム位置

3D地球を読み込み中...

Starlink 5031について

説明を読み込み中...

次回通過

Passes for default location (London). Set your location on the main map for personalized predictions.

高度履歴

Loading altitude history...

軌道要素

1 53889U 22119D 26121.29230135 .00001323 00000-0 10117-3 0 9997
2 53889 53.2174 88.1267 0001664 72.0000 288.1173 15.08842673199626
Epoch: May 1, 2026 • Age: 14 hours

現在のステータス

高度 552.6 km
速度 7.58 km/s
衛星直下点 -37.74°S, 126.01°W
打ち上げ日 Sep 24, 2022
運用期間 3.5 years
タイプ internet

技術仕様

分類 Payload
質量 305.00 kg
乾燥質量 290.00 kg
総質量 305.00 kg
長さ 0.20 m
直径 2.80 m
スパン 9.00 m
形状 Box + pan
製造者 SPXS
バスタイプ Starlink
フェーズステータス In Orbit
所有者/国 SPXS/US

Most Searched